Weather in Lynnwood

United States     47°49′16″N   122°18′49″W
temp.,
°C
wind,
m/s
gust,
m/s
humid.,
%
clouds,
%
prec.,
mm/h
press.,
hPa
HPBL,
m
25 may, wed
wed2523:00+11se1283100 0.0 101653
02:00+11sse2584100 0.0 1016242
05:00+11sse2682100 0.0 1016373
08:00+12sse3982100 0.0 1016697
11:00+15s576586 0.1 10161284
14:00+19ssw454841 0.1 10161735
17:00+19w344743 0.1 10151382
20:00+14n2575100 0.0 1015163
26 may, thu
thu2623:00+9nne1191100 0.0 101533
02:00+8nne1193100 0.0 101421
05:00+8nne0093100 0.0 101312
08:00+12e1175100 0.0 1012190
11:00+15se0164100 0.0 1012405
14:00+15s2473100 0.0 1011199
17:00+12s2793100 0.6 1011322
20:00+12sse3898100 2.2 1011429
27 may, fri
fri2723:00+11s3899100 3.2 1011383
02:00+11s4119825 1.2 1012552
05:00+11s41293100 1.3 1012526
08:00+12s41087100 0.0 1013677
11:00+15ssw5856100 0.0 10141301
14:00+18ssw5844100 0.1 10131795
17:00+18wsw464277 0.1 10121959
20:00+13se027299 0.3 101190
28 may, sat
sat2823:00+9e1191100 0.3 101118
02:00+9ese1189100 0.0 101031
05:00+9nw0192100 0.2 100847
08:00+8n1496100 0.4 1007218
11:00+9nnw2492100 0.6 1005378
14:00+11nnw4681100 0.4 1005689
17:00+9nnw3895100 1.2 1005479
20:00+9s1297100 1.5 100690
29 may, sun
sun2923:00+8sse2599100 3.6 1008245
02:00+8s2698100 1.1 1009383
05:00+8s379899 1.6 1010399
08:00+8ssw2495100 0.1 1011372
11:00+10s2384100 0.1 1012557
14:00+13ese2263100 0.0 1013996
17:00+12e2269100 0.0 1013535
20:00+11e1378100 0.0 1015133